Weather History for Lee's Summit, MO

Change the Weather History Date:

Tuesday, July 23, 2013

  Actual Average (KMKC) Record (KMKC)
Temperature  
Mean Temperature 78 °F -  
Max Temperature 87 °F 87 °F 105 °F (2012)
Min Temperature 70 °F 70 °F 60 °F (2003)
Cooling Degree Days 13    
Growing Degree Days 28 (Base 50)    
Moisture  
Dew Point 67 °F    
Average Humidity 67    
Maximum Humidity 87    
Minimum Humidity 51    
Precipitation  
Precipitation 0.00 in - - ()
Sea Level Pressure  
Sea Level Pressure 29.87 in    
Wind  
Wind Speed 7 mph (NE)    
Max Wind Speed 15 mph    
Max Gust Speed 21 mph    
Visibility 10 miles    
Events      
Averages and records for this station are not official NWS values.
T = Trace of Precipitation, MM = Missing Value Source: NWS Daily Summary

Daily Weather History Graph

Daily Weather History Graph

Search for Another Location

Airport:

Trip Planner

Search our weather history database for the weather conditions in past years. The results will help you decide how hot, cold, wet, or windy it might be!

Date:

Astronomy

Jul. 23, 2013 Rise Set
Actual Time 6:10 AM CDT 8:36 PM CDT
Civil Twilight 5:40 AM CDT 9:07 PM CDT
Nautical Twilight 5:02 AM CDT 9:44 PM CDT
Astronomical Twilight 4:20 AM CDT 10:26 PM CDT
Moon 9:06 PM CDT (7/23) 7:19 AM CDT (7/23)
Length of Visible Light 15h 26m
Length of Day
14h 25m
Full, 99% of the Moon is Illuminated
Jul 23
Full
Jul 29
Last Quarter
Aug 6
New
Aug 14
First Quarter
Aug 20
Full

Hourly Weather History & Observations

Time (CDT) Temp. Heat Index Dew Point Humidity Pressure Visibility Wind Dir Wind Speed Gust Speed Precip Events Conditions
12:53 AM 79.0 °F - 66.9 °F 66% 29.83 in 10.0 mi South 5.8 mph - N/A   Clear
1:53 AM 78.1 °F - 66.9 °F 68% 29.86 in 10.0 mi Calm Calm - N/A   Clear
2:53 AM 75.0 °F - 66.9 °F 76% 29.82 in 10.0 mi South 3.5 mph - N/A   Clear
3:53 AM 73.9 °F - 66.9 °F 79% 29.81 in 10.0 mi NNE 5.8 mph - N/A   Clear
4:53 AM 70.0 °F - 66.0 °F 87% 29.79 in 10.0 mi SW 3.5 mph - N/A   Clear
5:53 AM 72.0 °F - 68.0 °F 87% 29.80 in 10.0 mi SW 6.9 mph - N/A   Clear
6:53 AM 73.9 °F - 70.0 °F 87% 29.81 in 10.0 mi WSW 4.6 mph - N/A   Clear
7:53 AM 79.0 °F - 71.1 °F 77% 29.82 in 10.0 mi NNE 6.9 mph - N/A   Clear
8:53 AM 80.1 °F 83.2 °F 70.0 °F 71% 29.86 in 10.0 mi NNE 10.4 mph - N/A   Clear
9:22 AM 80.6 °F 84.6 °F 71.6 °F 74% 29.91 in 10.0 mi NNW 6.9 mph - N/A   Partly Cloudy
9:53 AM 81.0 °F 84.9 °F 71.1 °F 72% 29.88 in 10.0 mi NNW 6.9 mph - N/A   Scattered Clouds
10:03 AM 82.4 °F 87.2 °F 71.6 °F 70% 29.92 in 10.0 mi North 8.1 mph 16.1 mph N/A   Mostly Cloudy
10:53 AM 79.0 °F - 69.1 °F 72% 29.88 in 10.0 mi NNE 15.0 mph - N/A   Overcast
11:42 AM 78.8 °F - 66.2 °F 65% 29.93 in 10.0 mi NNE 12.7 mph - N/A   Scattered Clouds
11:53 AM 79.0 °F - 66.0 °F 64% 29.90 in 10.0 mi NE 11.5 mph - N/A   Clear
12:53 PM 81.0 °F 83.0 °F 66.0 °F 60% 29.89 in 10.0 mi ENE 6.9 mph - N/A   Clear
1:53 PM 81.0 °F 83.0 °F 66.0 °F 60% 29.88 in 10.0 mi ENE 10.4 mph - N/A   Clear
2:53 PM 86.0 °F 88.2 °F 66.0 °F 51% 29.88 in 10.0 mi NE 11.5 mph - N/A   Clear
3:53 PM 86.0 °F 88.2 °F 66.0 °F 51% 29.88 in 10.0 mi NNE 11.5 mph - N/A   Clear
4:53 PM 86.0 °F 88.8 °F 66.9 °F 53% 29.86 in 10.0 mi NNE 8.1 mph - N/A   Clear
5:53 PM 84.9 °F 87.6 °F 66.9 °F 55% 29.83 in 10.0 mi ENE 9.2 mph - N/A   Clear
6:53 PM 82.9 °F 84.4 °F 64.0 °F 53% 29.85 in 10.0 mi NE 10.4 mph - N/A   Clear
7:53 PM 82.0 °F 83.8 °F 64.9 °F 56% 29.87 in 10.0 mi NE 8.1 mph - N/A   Clear
8:53 PM 79.0 °F - 66.0 °F 64% 29.88 in 10.0 mi ENE 13.8 mph 20.7 mph N/A   Clear
9:53 PM 77.0 °F - 64.9 °F 66% 29.89 in 10.0 mi ENE 10.4 mph - N/A   Clear
10:53 PM 73.9 °F - 63.0 °F 68% 29.93 in 10.0 mi NE 11.5 mph - N/A   Clear
11:53 PM 72.0 °F - 60.1 °F 66% 29.92 in 10.0 mi NE 11.5 mph - N/A   Clear